Preview of NWS' New Version of Forecast
This preview is not operational and should not be used for support decisions.

Regional Weather Roundup (RWR)

Issued by National Weather Service (NWS)

                            
000
ASUS43 KLSX 161807
RWRMO 

WEATHER SUMMARY FOR MISSOURI
NATIONAL WEATHER SERVICE SPRINGFIELD MO
100 PM CDT SUN JUN 16 2019

NOTE: "FAIR" INDICATES FEW OR NO CLOUDS BELOW 12,000 FEET WITH NO
       SIGNIFICANT WEATHER AND/OR OBSTRUCTIONS TO VISIBILITY.
       CURRENT SKY AND/OR WEATHER CONDITIONS ARE NOT AVAILABLE FOR
       CHILLICOTHE AND FARMINGTON.

MOZ001>031-035>038-043-044-053-054-161900-
...NORTHERN AND WESTERN MISSOURI...
  
CITY           SKY/WX    TMP DP  RH WIND       PRES   REMARKS
KANSAS CTY INT MOSUNNY   83  61  47 N9        29.87R                  
6HR MIN TEMP:  68; 6HR MAX TEMP:  84;                                

KANSAS C DTWN  SUNNY     86  59  39 N8        29.85R                  
6HR MIN TEMP:  70; 6HR MAX TEMP:  86;                                

LEE'S SUMMIT   PTSUNNY   85  59  41 N9        29.87R                  
6HR MIN TEMP:  69; 6HR MAX TEMP:  86;                                

ST JOSEPH      SUNNY     83  59  44 NW7       29.86R                  
6HR MIN TEMP:  68; 6HR MAX TEMP:  84;                                

CHILLICOTHE      N/A     83  68  60 CALM      29.84S                  
6HR MIN TEMP:  69; 6HR MAX TEMP:  84;                                

KIRKSVILLE     SUNNY     81  71  71 W3        29.84S                  
6HR MIN TEMP:  68; 6HR MAX TEMP:  81;                                

     
$$
MOZ066>068-077>081-088>096-101>105-161900-
...SOUTHWEST MISSOURI...
  
CITY           SKY/WX    TMP DP  RH WIND       PRES   REMARKS
SPRINGFIELD    CLOUDY    75  64  68 SW5       29.91R                  
6HR MIN TEMP:  66; 6HR MAX TEMP:  77; 6HR PCP: TRACE;                

JOPLIN         CLOUDY    71  67  87 SW7       29.93S                  
6HR MIN TEMP:  65; 6HR MAX TEMP:  72; 6HR PCP: TRACE;                

BRANSON        MOSUNNY   82  63  51 SW6       29.91S                  
               
$$
MOZ032>034-039>042-045>050-055>058-069>072-161900-
...CENTRAL MISSOURI...  
  
CITY           SKY/WX    TMP DP  RH WIND       PRES   REMARKS
COLUMBIA       SUNNY     78  65  63 SW7       29.86S                  
6HR MIN TEMP:  69; 6HR MAX TEMP:  79; 6HR PCP:  0.62;                

ROLLA          MOSUNNY   78  65  63 W8        29.89S                  
6HR MIN TEMP:  66; 6HR MAX TEMP:  78; 6HR PCP:  0.18;                

SEDALIA        MOSUNNY   76  70  82 S10       29.89S                  
6HR MIN TEMP:  66; 6HR MAX TEMP:  76; 6HR PCP:  0.28;                

WHITEMAN AFB   MOSUNNY   78  71  80 S10       29.83S                  
WARRENSBURG    SUNNY     81  68  65 S6        29.86F                  
OSAGE BEACH    SUNNY     80  66  62 W6        29.88F                  
               
$$
MOZ051-052-059>065-161900-
...EAST CENTRAL MISSOURI...
  
CITY           SKY/WX    TMP DP  RH WIND       PRES   REMARKS
ST LOUIS INTL  PTSUNNY   82  66  58 VRB5      29.86S                  
6HR MIN TEMP:  74; 6HR MAX TEMP:  82; 6HR PCP: TRACE;                

SPIRIT OF STL  PTSUNNY   80  68  66 VRB5      29.84F                  
6HR MIN TEMP:  73; 6HR MAX TEMP:  81; 6HR PCP: TRACE;                

ST CHARLES       N/A    N/A N/A N/A MISG      29.85S                  
                   
$$
MOZ072>076-082>087-097>100-106>115-161900-
...SOUTH CENTRAL AND SOUTHEAST MISSOURI...
  
CITY           SKY/WX    TMP DP  RH WIND       PRES   REMARKS
CAPE GIRARDEAU PTSUNNY   85  72  65 S8        29.84F HX  91           
6HR MIN TEMP:  76; 6HR MAX TEMP:  86;                                

FARMINGTON     PTSUNNY   81  69  67 SE7       29.87F                  
6HR MIN TEMP:  73; 6HR MAX TEMP:  81;                                

POPLAR BLUFF   FAIR      86  75  69 S15       29.83F HX  95           
6HR MIN TEMP:  75; 6HR MAX TEMP:  86;                                

WEST PLAINS    SUNNY     82  67  60 S7        29.89S                  
6HR MIN TEMP:  70; 6HR MAX TEMP:  82;                                

                                       
$$